GFSFLT2_con_mucape_069.txt.gz
CAPE
325 204 91 0 70 37 42 134 684 841 861 813 740 353 285 212 131 109 93 42 0 0 0 0 0 0 0 0 0 0 0 0
109 4 0 0 5 2 0 112 349 492 517 423 292 144 139 110 82 103 75 32 0 0 0 0 0 0 0 0 0 0 0 0
18 19 1 0 0 0 34 158 270 289 359 307 246 132 27 26 77 83 86 45 26 0 0 0 0 0 0 0 0 0 0 0
43 35 0 0 0 0 0 81 78 184 222 230 194 58 25 41 75 76 84 61 32 1 0 0 0 0 0 0 0 0 0 0
0 12 2 0 0 0 0 33 87 85 83 24 9 12 24 25 15 11 7 2 0 0 0 0 0 0 0 0 0 0 0 0
6 51 16 16 5 0 0 47 98 48 6 68 14 8 5 1 0 2 7 0 0 0 0 0 0 0 0 0 0 0 0 0
30 43 12 1 1 11 0 79 49 74 81 79 48 21 1 1 0 0 2 0 0 0 0 0 0 0 0 0 0 0 0 0
15 12 28 17 8 10 3 35 30 108 125 95 89 52 5 6 0 0 9 2 0 0 0 0 0 0 0 0 0 0 0 0
17 6 2 7 0 0 4 32 68 130 158 147 128 79 11 15 0 0 5 1 0 0 0 0 0 0 0 0 0 0 0 0
7 4 2 1 0 2 2 42 62 115 151 139 128 163 47 38 19 3 0 0 0 0 0 0 0 0 0 0 0 0 0 0
0 11 1 0 0 2 7 22 49 30 62 110 121 143 59 116 22 1 0 0 0 4 0 0 0 0 0 0 0 0 0 0
12 9 3 2 8 5 1 2 9 4 7 16 76 58 135 79 20 0 0 0 0 3 0 0 0 0 0 0 0 0 0 0
0 0 0 0 0 0 7 0 1 0 0 21 39 25 120 51 76 55 10 0 0 1 3 0 0 0 0 0 0 0 0 0
0 0 0 0 0 0 0 0 0 0 0 20 57 34 46 96 83 62 68 16 8 4 7 9 15 11 1 4 0 0 0 0
0 0 0 0 0 0 0 0 0 0 0 0 94 139 166 232 150 104 79 96 59 1 0 12 23 12 8 2 0 0 0 0
0 0 0 0 0 0 0 0 0 0 0 0 126 192 257 278 297 201 219 171 118 15 3 20 42 10 2 3 8 7 0 0
0 0 0 0 0 3 0 0 0 0 0 0 143 197 199 247 307 206 199 221 130 37 24 11 20 4 12 1 1 0 0 0
0 0 0 0 0 20 29 3 0 0 0 0 44 231 313 297 329 234 161 123 76 67 2 20 33 26 0 0 0 0 0 0
0 1 9 24 35 33 36 92 48 24 2 0 65 175 358 365 287 192 89 106 108 43 7 21 22 20 18 0 0 0 0 0
7 13 19 11 28 36 32 52 77 50 52 1 89 180 309 319 181 97 102 87 25 8 12 29 47 44 4 0 0 2 4 3

GFSFLT2_con_mucape_072.txt.gz
CAPE
264 203 171 13 6 3 81 87 652 894 749 538 482 360 190 131 53 9 0 0 0 0 0 0 0 0 0 0 0 0 0 0
264 190 190 74 0 0 5 68 355 523 444 350 252 133 77 50 0 0 0 0 0 0 0 0 0 0 0 0 0 0 0 0
131 56 33 12 0 0 0 10 143 345 314 185 71 0 0 0 3 0 5 0 0 0 0 0 0 0 0 0 0 0 0 0
105 51 35 1 0 0 0 1 23 155 214 200 52 0 0 0 35 43 38 2 0 0 0 0 0 0 0 0 0 0 0 0
248 39 1 0 0 0 1 1 19 84 143 146 85 19 5 12 16 11 4 0 0 1 0 0 0 0 0 0 0 0 0 0
4 1 4 0 0 0 1 0 0 35 42 64 31 0 0 0 0 2 1 0 0 0 0 0 0 0 0 0 0 0 0 0
3 8 15 12 4 0 0 0 0 0 34 60 0 0 0 0 0 3 3 0 0 0 0 0 0 0 0 0 0 0 0 0
22 20 24 19 7 4 0 0 0 32 44 5 0 0 0 0 0 1 9 7 0 0 0 0 0 0 0 0 0 0 0 0
34 34 51 16 5 3 4 1 3 10 45 30 0 0 0 0 0 0 19 9 0 0 0 0 0 0 0 0 0 0 0 0
10 33 5 21 4 10 8 4 18 26 63 44 24 4 0 0 0 0 5 7 0 0 0 0 0 0 0 0 0 0 0 0
27 6 5 12 16 1 5 14 27 54 89 60 53 14 0 1 0 0 0 0 0 0 0 0 0 0 0 0 0 0 0 0
13 26 17 14 11 2 5 16 52 65 72 108 75 85 24 52 12 1 0 0 0 0 0 0 0 0 0 0 0 0 0 0
19 13 20 21 4 1 0 5 5 20 62 67 100 101 56 45 28 15 3 0 0 0 0 0 0 0 0 0 0 0 0 0
0 0 0 1 5 3 0 3 0 12 8 6 1 6 37 29 16 22 1 0 0 0 0 0 0 2 0 7 0 0 0 0
0 0 0 0 0 0 0 0 0 0 0 0 0 7 3 35 52 47 43 29 9 0 0 2 3 16 13 23 2 0 0 0
0 0 0 0 0 0 0 0 0 0 0 0 0 18 19 15 38 25 47 34 33 23 43 35 18 37 18 10 0 0 0 0
0 0 0 0 0 0 0 0 0 0 0 0 0 10 49 45 75 81 90 115 112 116 92 35 36 23 15 3 4 1 2 0
0 0 0 0 0 0 0 0 0 0 0 0 0 12 44 115 110 152 185 251 193 200 102 63 46 19 14 18 8 21 11 1
0 0 0 0 0 0 0 0 0 0 0 0 0 14 100 133 179 243 276 317 205 201 129 96 73 45 29 17 20 19 1 10
0 0 0 0 0 0 1 15 0 11 20 16 0 0 35 131 232 314 335 264 208 136 112 92 71 40 34 13 19 7 0 2

GFSFLT2_con_mucape_075.txt.gz
CAPE
259 204 71 17 51 13 62 129 313 601 714 661 495 313 224 97 21 0 0 0 0 0 0 0 0 0 0 0 0 0 0 0
196 115 70 23 2 36 154 145 148 223 358 464 280 209 138 80 0 0 0 0 0 0 0 0 0 0 0 0 0 0 0 0
382 115 47 26 0 20 45 106 174 194 234 281 107 92 69 2 0 0 0 0 0 0 0 0 0 0 0 0 0 0 0 0
85 34 19 2 1 0 0 25 60 103 131 137 80 30 7 2 0 0 0 0 0 0 0 0 0 0 0 0 0 0 0 0
143 2 0 12 0 0 0 13 59 45 127 63 13 38 6 0 0 0 0 0 0 0 0 0 0 0 0 0 0 0 0 0
92 83 11 0 0 0 2 4 19 40 118 41 18 17 4 0 0 0 0 1 0 0 0 0 0 0 0 0 0 0 0 0
46 1 0 1 0 0 0 2 19 46 82 30 0 0 0 0 3 5 0 0 0 0 0 0 0 0 0 0 0 0 0 0
3 0 0 5 1 1 0 1 1 17 22 0 0 0 0 0 2 2 0 0 0 1 0 0 0 0 0 0 0 0 0 0
13 20 1 5 3 3 0 4 1 0 14 59 10 0 0 0 0 0 1 2 0 0 0 0 0 0 0 0 0 0 0 0
17 9 18 19 16 1 4 1 3 17 20 71 2 0 0 0 0 0 9 14 11 0 0 0 0 0 0 0 0 0 0 0
6 3 6 29 6 9 13 2 11 36 35 47 0 0 0 0 0 0 0 14 3 2 0 0 0 0 0 0 0 0 0 0
8 11 4 3 6 13 1 18 51 68 49 38 6 0 0 0 0 0 0 0 17 8 6 6 5 0 0 0 0 0 0 0
0 1 3 0 0 18 27 15 56 59 81 68 30 6 0 0 0 0 0 0 6 8 13 28 20 0 0 0 0 0 0 0
0 0 5 13 8 4 3 41 69 61 88 65 38 46 13 1 28 10 20 23 7 0 0 3 1 0 2 9 10 1 0 0
0 0 0 13 15 8 7 28 86 54 66 55 63 32 70 77 55 43 52 39 13 0 0 4 13 15 19 21 22 2 0 0
0 0 0 0 1 0 3 0 0 0 0 0 1 8 32 57 97 71 77 33 22 13 12 18 34 43 34 35 16 13 21 0
0 0 0 0 0 0 0 0 0 0 0 0 0 0 16 22 34 59 57 49 55 35 53 34 55 61 52 21 18 10 16 18
0 0 0 0 0 0 0 0 0 0 0 0 0 0 0 32 56 55 66 99 116 76 91 98 99 88 62 28 23 23 1 12
0 0 0 0 0 0 0 0 0 0 0 1 0 0 0 5 43 73 67 64 99 119 163 177 144 109 88 55 36 22 5 7
0 0 0 0 0 0 0 0 0 0 0 10 8 6 2 6 34 29 61 82 122 163 279 248 122 78 99 85 45 7 11 12

GFSFLT2_con_mucape_078.txt.gz
CAPE
357 412 279 137 110 176 374 504 492 578 619 702 546 302 180 168 113 6 0 5 91 2 0 0 0 0 0 0 0 0 0 0
265 186 314 104 86 97 101 245 235 288 343 387 344 198 142 50 7 0 0 0 20 0 0 0 0 0 0 0 0 0 0 0
302 116 85 53 31 109 94 240 148 97 164 218 213 67 28 0 0 0 0 0 0 0 0 0 0 0 0 0 0 0 0 0
192 245 124 45 55 22 126 52 41 68 103 140 142 41 1 0 0 0 0 0 0 5 14 0 0 0 0 0 0 0 0 0
112 76 180 120 7 18 41 20 16 2 34 143 66 0 1 0 0 0 0 0 0 1 3 0 0 0 0 0 0 0 0 0
82 44 2 0 2 19 33 51 8 2 34 56 41 3 0 0 0 0 0 0 0 0 0 0 0 0 0 0 0 0 0 0
16 16 35 2 0 0 36 13 4 20 30 41 15 6 0 0 4 2 0 0 2 0 0 0 0 0 0 0 0 0 0 0
6 8 5 0 0 0 7 10 17 46 62 48 16 4 9 17 15 9 4 0 1 0 0 0 0 0 0 0 0 0 0 0
1 10 6 8 8 0 3 8 6 56 67 17 7 13 10 27 19 6 6 12 7 0 0 0 0 0 0 0 0 0 0 0
26 7 16 33 4 3 4 4 36 57 75 21 3 3 18 7 1 8 17 23 12 6 1 0 0 0 0 0 0 0 0 0
8 16 6 2 30 5 3 3 41 42 67 42 12 4 3 15 5 21 27 31 38 22 13 0 0 0 0 0 0 0 0 0
39 4 5 6 4 2 3 6 17 28 36 44 36 0 0 4 2 2 12 27 33 47 36 15 5 1 2 0 0 0 0 0
10 10 27 1 3 9 18 0 0 44 36 51 90 4 0 0 0 0 0 0 10 11 18 22 12 0 0 0 0 0 0 0
0 11 6 5 15 6 2 3 0 10 65 48 57 0 0 0 0 0 0 0 1 3 2 11 17 9 0 0 0 0 3 5
3 1 13 4 5 4 6 16 33 55 80 87 74 37 34 5 0 0 7 4 7 5 0 4 7 6 4 1 3 1 0 0
1 1 2 11 6 2 4 5 4 0 42 94 71 71 70 21 8 19 64 37 16 19 11 4 2 0 11 21 9 6 15 1
0 0 0 0 4 8 6 0 2 4 24 43 64 68 41 60 75 87 84 67 63 57 25 3 2 2 11 15 12 19 1 41
0 0 0 0 0 0 0 0 0 0 0 0 0 6 19 38 43 69 101 97 64 72 74 40 37 10 16 26 18 28 28 32
0 0 0 0 0 0 0 0 0 0 0 0 0 0 0 3 17 35 44 49 54 69 76 65 58 53 62 59 30 22 49 42
0 0 0 0 0 0 0 0 0 0 0 0 0 0 0 0 0 0 8 13 17 29 24 37 87 86 62 110 80 68 79 31

GFSFLT2_con_mucape_081.txt.gz
CAPE
581 527 517 693 466 417 169 269 412 361 695 718 608 530 501 502 228 86 141 255 110 6 0 2 4 1 0 0 0 0 3 5
532 441 300 154 255 261 340 242 125 239 389 289 227 260 362 141 76 118 210 187 73 2 0 3 3 0 0 0 0 0 1 2
383 362 357 106 141 118 237 340 204 232 325 194 110 183 118 67 21 151 252 127 21 0 0 0 0 0 0 0 0 0 0 3
262 344 269 318 230 112 370 102 134 107 175 33 6 25 32 45 30 106 177 77 33 0 0 0 0 0 0 0 0 0 0 2
121 292 83 92 82 45 143 187 84 75 29 15 12 65 37 7 3 7 64 105 17 0 0 0 0 0 0 0 0 0 0 0
184 76 111 127 70 41 40 107 46 49 5 19 10 67 17 8 0 0 0 21 80 1 0 0 0 0 0 0 0 0 0 0
27 76 57 36 31 7 15 31 36 21 1 22 16 4 0 0 0 0 3 6 1 0 0 0 0 0 0 0 0 0 0 0
2 23 78 31 2 6 23 18 21 5 16 43 11 0 0 0 0 8 9 12 8 0 0 0 0 0 0 0 0 0 0 0
11 6 29 0 8 16 8 5 3 8 50 40 29 0 0 0 2 26 2 1 0 0 0 0 0 0 0 0 0 0 0 0
10 17 6 7 0 3 4 13 34 33 65 39 22 3 21 33 34 17 6 5 0 0 0 0 0 0 0 0 0 0 0 0
6 27 16 7 1 5 10 8 9 21 57 39 23 30 47 40 25 15 14 3 3 4 0 0 0 0 0 0 0 0 0 0
16 18 10 7 0 4 5 5 18 86 70 31 18 41 38 17 4 6 3 3 25 30 26 13 8 1 3 0 0 0 0 0
17 17 8 1 1 1 0 6 0 93 63 29 36 22 11 13 0 0 2 7 32 18 37 38 25 20 24 12 0 0 0 0
0 1 5 1 6 7 3 28 44 52 42 43 37 29 3 0 0 2 0 4 0 21 11 7 16 24 21 19 4 0 7 3
0 0 3 3 0 5 3 14 21 8 0 0 60 26 2 0 1 1 2 0 1 2 0 0 9 6 6 14 12 13 7 0
0 5 4 11 1 8 0 0 0 0 0 0 31 29 2 0 13 9 18 4 0 1 8 1 0 1 3 6 3 12 19 9
0 0 0 0 7 3 0 0 2 14 2 4 68 47 31 8 19 21 27 5 17 24 13 19 2 0 1 0 0 3 12 31
3 0 0 0 0 0 0 6 10 4 2 62 78 64 42 53 26 7 13 14 26 46 43 39 28 10 10 5 5 24 14 9
0 2 0 0 0 0 3 0 6 2 18 34 36 35 7 21 23 61 55 43 65 85 68 50 47 47 66 46 35 28 33 19
0 0 0 0 0 0 0 1 2 2 0 10 3 20 0 0 11 42 43 48 51 57 51 36 27 28 45 60 46 36 0 5

GFSFLT2_con_mucape_084.txt.gz
CAPE
897 985 874 455 701 417 536 618 680 495 364 479 713 877 772 841 770 625 540 208 7 5 5 5 2 0 0 0 0 1 0 4
674 875 913 709 628 370 184 413 355 443 438 351 399 411 526 428 366 492 295 144 4 3 3 2 1 0 0 0 0 0 4 1
460 658 472 213 404 406 284 292 343 242 196 253 168 195 395 208 215 283 193 76 3 0 1 1 0 0 0 0 0 0 1 3
105 377 275 213 290 209 175 527 234 160 95 200 96 120 165 186 250 209 143 12 0 1 2 0 0 0 0 0 0 1 2 0
141 138 158 194 194 167 319 1108 545 217 83 77 137 76 123 262 273 259 104 0 0 0 0 0 0 0 0 0 0 0 2 3
23 42 187 48 67 209 275 505 441 390 80 35 20 18 62 165 213 135 85 22 0 0 0 1 0 0 0 0 0 0 1 12
0 21 77 40 70 112 66 285 117 51 19 15 7 18 29 70 159 169 117 85 41 6 4 0 0 0 0 0 0 0 3 7
0 3 20 5 28 76 23 5 18 26 30 2 9 8 27 26 40 28 127 163 94 25 2 0 0 0 0 0 0 0 0 3
0 6 10 14 6 1 0 18 8 1 3 3 8 51 68 31 2 0 3 20 42 7 10 0 0 0 0 0 0 0 0 0
0 2 12 5 0 0 12 0 7 6 6 6 51 60 24 8 0 0 1 1 0 0 0 0 0 0 0 0 0 0 0 0
0 0 10 2 0 1 0 3 2 39 15 34 40 18 3 0 0 0 7 0 0 0 0 0 0 0 0 0 0 0 0 0
0 2 30 24 1 1 2 2 0 1 34 29 10 0 2 13 7 21 13 0 0 0 0 0 0 0 0 0 0 0 0 0
0 8 26 12 7 6 2 4 0 0 38 39 34 12 8 15 17 1 4 2 0 0 1 3 1 1 0 0 26 19 10 0
0 31 0 14 5 6 12 6 1 0 41 58 42 13 0 13 20 0 3 0 6 15 8 15 18 13 3 13 20 8 21 15
4 0 1 4 3 5 2 8 8 0 107 52 56 47 10 17 8 17 22 77 62 39 5 13 10 4 9 21 117 120 72 1
19 1 0 2 1 7 0 0 0 0 1 54 63 100 92 25 32 38 90 58 55 80 36 38 29 47 0 2 25 119 130 102
20 0 4 7 8 5 3 0 0 62 3 0 0 112 116 56 54 57 89 65 78 102 77 94 66 99 112 109 9 4 9 70
21 0 9 1 9 8 2 0 0 0 3 1 0 81 107 135 76 84 90 78 86 154 182 162 128 141 144 137 146 103 80 69
4 3 5 0 0 0 2 1 4 0 5 9 3 52 56 135 144 62 82 98 131 217 290 320 307 252 220 201 214 199 166 21
3 4 6 0 0 27 42 36 12 11 2 0 59 94 115 117 198 223 230 240 280 342 400 433 378 354 352 351 333 302 43 4